Flag for France Weather past 2 weeks in Nancy, France

Now
59 °F

Partly sunny.


Feels Like: 59 °F
Forecast: 50 / 69 °F
Wind: 2 mph from North

Location: Nancy / Ochey

Current Time: Sep 1, 2014 at 1:16:12 PM

Latest Report: Sep 1, 2014 at 12:30 PM


Visibility: N/A

Pressure: 30.18 "Hg

Humidity: 77%

Dew point: 52 °F

Location of NancyLocation

Historic Weather in Nancy — Graph

°F

Nancy temperature yesterday

Maximum temperature yesterday: 64 °F (at 3:30 PM)
Minimum temperature yesterday: 55 °F (at 6:30 AM)
Average temperature yesterday: 59 °F

Past Weeks' High & Low Weather Summary

 TemperatureHumidityPressure
High73 °F (Aug 28, 3:30 PM)100% (Aug 19, 1:00 AM)30.18 "Hg (Aug 19, 1:00 AM)
Low45 °F (Aug 21, 7:00 AM)40% (Aug 24, 5:30 PM)29.68 "Hg (Aug 26, 2:30 AM)
Average59 °F79%30.01 "Hg
* Reported Aug 17 12:00 Noon — Sep 1 12:00 Noon, Nancy, Weather by CustomWeather, © 2014

Note: Actual official high and low records may vary slightly from our data, if they occured in-between our weather recording intervals... More about our weather records

Advertising

Nancy weather history for previous 24 hours

 ConditionsComfort  
Time TempWeatherWind HumidityBarometerVisibility
12:00 PM
Sep 1
55 °FPartly sunny.3 mph82%30.18 "HgN/A
11:30 AM55 °FOvercast.2 mph88%30.18 "HgN/A
11:00 AM54 °FOvercast.3 mph88%30.18 "HgN/A
10:30 AM52 °FMostly cloudy.3 mph100%30.18 "HgN/A
10:00 AM52 °FDense fog.2 mph100%30.18 "Hg1 mi
9:30 AM52 °FFog.3 mph100%30.18 "Hg1 mi
9:00 AM52 °FFog.3 mph100%30.18 "Hg1 mi
8:30 AM50 °FFog.2 mph100%30.15 "Hg0 mi
8:00 AM50 °FFog.6 mph100%30.15 "Hg0 mi
7:30 AM50 °FFog.6 mph100%30.15 "Hg1 mi
7:00 AM50 °FFog.3 mph100%30.12 "Hg1 mi
6:30 AM48 °FFog.3 mph100%30.12 "Hg1 mi
6:00 AM48 °FFog.3 mph100%30.12 "Hg1 mi
5:30 AM50 °FLight fog.1 mph94%30.12 "Hg1 mi
5:00 AM48 °FFog.3 mph100%30.12 "Hg1 mi
4:30 AM50 °FFog.No wind94%30.12 "Hg1 mi
4:00 AM50 °FFog.2 mph100%30.12 "Hg0 mi
3:30 AM50 °FFog.5 mph100%30.12 "Hg2 mi
3:00 AM50 °FFog.5 mph100%30.09 "Hg3 mi
2:30 AM50 °FFog.5 mph100%30.09 "Hg1 mi
2:00 AM52 °FFog.3 mph94%30.09 "Hg2 mi
1:30 AM52 °FPassing clouds.3 mph100%30.09 "HgN/A
1:00 AM52 °FFog.2 mph100%30.09 "Hg2 mi
12:30 AM52 °FClear.3 mph100%30.09 "Hg4 mi
12:00 AM55 °FClear.3 mph94%30.09 "HgN/A
11:30 PM
Aug 31
55 °FLight rain. Passing clouds.1 mph94%30.09 "HgN/A
11:00 PM55 °FLight rain. Mostly cloudy.6 mph94%30.09 "HgN/A
10:30 PM55 °FLight rain. Partly cloudy.7 mph94%30.09 "Hg5 mi
10:00 PM55 °FPassing clouds.2 mph94%30.09 "HgN/A
9:30 PM57 °FClear.3 mph88%30.07 "HgN/A
9:00 PM57 °FClear.5 mph88%30.07 "HgN/A
8:30 PM57 °FClear.3 mph88%30.04 "HgN/A
8:00 PM57 °FClear.3 mph88%30.04 "HgN/A
7:30 PM57 °FCool.6 mph88%30.04 "HgN/A
7:00 PM57 °FLight rain. Partly sunny.14 mph82%30.04 "Hg4 mi
6:30 PM63 °FPartly sunny.7 mph68%30.04 "HgN/A
6:00 PM63 °FPartly sunny.10 mph68%30.04 "HgN/A
5:30 PM63 °FPartly sunny.10 mph68%30.04 "HgN/A
5:00 PM61 °FPartly sunny.7 mph77%30.04 "HgN/A
4:30 PM63 °FOvercast.7 mph73%30.01 "HgN/A
4:00 PM63 °FMostly cloudy.12 mph68%30.01 "HgN/A
3:30 PM64 °FPartly sunny.7 mph64%30.01 "HgN/A
3:00 PM63 °FPartly sunny.6 mph68%30.04 "HgN/A
2:30 PM63 °FBroken clouds.9 mph73%30.04 "HgN/A
2:00 PM61 °FPartly sunny.8 mph72%30.04 "HgN/A
1:30 PM61 °FBroken clouds.7 mph72%30.04 "HgN/A
1:00 PM59 °FPartly sunny.7 mph82%30.04 "HgN/A
Weather by CustomWeather, © 2014

See weather overviewHow to use our weather pages